Home   Weather   Tromsø   Past weeks
Flag for Norway

Past Weather in Tromsø, Norway — Yesterday and Last 2 Weeks

Now
28 °F

Snow flurries. Ice fog.


Feels Like: 21 °F
Forecast: 32 / 27 °F
Wind: 7 mph from South

Location: Tromso / Langnes

Current Time: Mar 25, 2019 at 1:13:43 pm

Latest Report: Mar 25, 2019 at 11:00 am


Visibility: 1 mi

Pressure: 29.65 "Hg

Humidity: 94%

Dew Point: 26 °F

Location of TromsøLocation

Past Weather in Tromsø — Graph

°F

Tromsø Temperature Yesterday

Maximum temperature yesterday: 36 °F (at 1:00 pm)
Minimum temperature yesterday: 30 °F (at 11:00 pm)
Average temperature yesterday: 33 °F

High & Low Weather Summary for the Past Weeks

 TemperatureHumidityPressure
High41 °F (Mar 23, 4:00 am)96% (Mar 12, 3:00 pm)29.89 "Hg (Mar 12, 3:00 pm)
Low11 °F (Mar 10, 11:00 pm)52% (Mar 11, 4:00 pm)28.73 "Hg (Mar 23, 10:00 pm)
Average28 °F77%29.50 "Hg
* Reported Mar 10 12:00 pm — Mar 25 11:00 am, Tromsø. Weather by CustomWeather, © 2019

Note: Actual official high and low records may vary slightly from our data, if they occured in-between our weather recording intervals... More about our weather records

Advertising

Tromsø Weather History for the Previous 24 Hours

Scroll right to see more
 ConditionsComfort  
Time TempWeatherWind HumidityBarometerVisibility
11:00 am
Mon, Mar 25
28 °FSnow flurries. Ice fog.7 mph94%29.65 "Hg1 mi
10:00 am27 °FSnow showers. Ice fog.9 mph96%29.65 "Hg1 mi
9:00 am28 °FLight snow. Overcast.8 mph93%29.64 "Hg6 mi
7:00 am28 °FSnow flurries. Overcast.7 mph90%29.66 "Hg1 mi
6:00 am29 °FSnow flurries. Partly sunny.7 mph84%29.66 "Hg22 mi
5:00 am28 °FOvercast.5 mph72%29.67 "Hg22 mi
4:00 am22 °FPassing clouds.No wind84%29.66 "Hg19 mi
3:00 am24 °FPassing clouds.1 mph79%29.66 "Hg22 mi
2:00 am23 °FClear.1 mph78%29.64 "Hg19 mi
1:00 am28 °FPassing clouds.2 mph70%29.63 "Hg22 mi
12:00 am30 °FOvercast.3 mph67%29.61 "Hg19 mi
11:00 pm
Sun, Mar 24
30 °FOvercast.6 mph66%29.59 "Hg22 mi
10:00 pm30 °FOvercast.10 mph73%29.55 "Hg12 mi
9:00 pm31 °FChilly.7 mph72%29.50 "Hg19 mi
7:00 pm31 °FLight snow. Ice fog.3 mph91%29.44 "Hg1 mi
6:00 pm31 °FLight snow. Overcast.3 mph95%29.38 "Hg2 mi
5:00 pm32 °FRain showers. Overcast.2 mph91%29.38 "Hg9 mi
4:00 pm32 °FFreezing rain. Overcast.2 mph93%29.35 "Hg6 mi
2:00 pm35 °FSprinkles. Overcast.7 mph76%29.29 "Hg12 mi
1:00 pm36 °FOvercast.5 mph75%29.26 "Hg17 mi
Weather by CustomWeather, © 2019

See weather overview